Location: Unspecified
(0.0000°N, 0.0000°E)
Time: 15:20:08
(UTC+00:00)

Tiros 1 - All Passes

Search period start: 24 October 2014 00:00
Search period end: 03 November 2014 00:00
Orbit: 633 x 667 km, 48.4° (Epoch: 23 October)

Date Brightness Start Highest point End Pass type
(mag) Time Alt. Az. Time Alt. Az. Time Alt. Az.
24 Oct - 06:17:21 10° N 06:21:06 23° NE 06:24:53 10° ESE daylight
24 Oct - 07:59:08 10° WNW 08:03:12 28° SW 08:07:18 10° S daylight
24 Oct - 18:30:21 10° SSW 18:34:46 41° SE 18:39:08 10° ENE visible
24 Oct - 20:14:15 10° W 20:16:52 15° NW 20:19:28 10° NNW visible
25 Oct - 06:43:21 10° NW 06:48:05 79° NE 06:52:53 10° SE daylight
25 Oct - 17:17:56 10° SSE 17:19:35 12° SE 17:21:13 10° ESE daylight
25 Oct - 18:57:11 10° SW 19:01:45 54° NW 19:06:16 10° NNE visible
26 Oct - 05:29:23 10° N 05:32:59 22° NE 05:36:37 10° E daylight
26 Oct - 07:10:56 10° WNW 07:15:05 30° SW 07:19:16 10° S daylight
26 Oct - 17:42:18 10° SSW 17:46:40 38° SE 17:50:58 10° ENE daylight
26 Oct - 19:25:52 10° W 19:28:45 16° NW 19:31:36 10° NNW visible
27 Oct - 05:55:15 10° NNW 05:59:58 73° NE 06:04:44 10° SE daylight
27 Oct - 16:30:20 10° SE 16:31:27 11° SE 16:32:34 10° ESE daylight
27 Oct - 18:09:01 10° SW 18:13:38 59° NW 18:18:12 10° NNE visible
28 Oct - 04:41:25 10° N 04:44:51 20° NE 04:48:18 10° E visible
28 Oct - 06:22:43 10° WNW 06:26:57 32° SW 06:31:13 10° SSE daylight
28 Oct - 16:54:14 10° SSW 16:58:32 35° SE 17:02:48 10° ENE daylight
28 Oct - 18:37:31 10° W 18:40:37 18° NW 18:43:42 10° N visible
29 Oct - 05:07:09 10° NNW 05:11:50 67° NE 05:16:34 10° SE visible
29 Oct - 17:20:51 10° SW 17:25:30 65° NW 17:30:07 10° NNE daylight
30 Oct - 03:53:29 10° N 03:56:43 18° NE 03:59:58 10° E visible
30 Oct - 05:34:31 10° WNW 05:38:48 35° SW 05:43:09 10° SSE daylight
30 Oct - 16:06:10 10° SSW 16:10:24 33° SE 16:14:36 10° ENE daylight
30 Oct - 17:49:11 10° W 17:52:29 19° NW 17:55:46 10° N daylight
31 Oct - 04:19:04 10° NNW 04:23:42 61° NE 04:28:24 10° SE visible
31 Oct - 06:04:50 10° WSW 06:05:54 11° SW 06:06:57 10° SW daylight
31 Oct - 16:32:40 10° SW 16:37:22 70° NW 16:42:01 10° NNE daylight
01 Nov - 03:05:33 10° N 03:08:34 17° NE 03:11:37 10° E visible
01 Nov - 04:46:18 10° WNW 04:50:40 37° SW 04:55:04 10° SSE visible
01 Nov - 15:18:05 10° S 15:22:16 30° SE 15:26:22 10° ENE daylight
01 Nov - 17:00:51 10° W 17:04:21 21° NW 17:07:48 10° N daylight
02 Nov - 03:30:58 10° NNW 03:35:33 56° NE 03:40:12 10° SE visible
02 Nov - 05:16:07 10° WSW 05:17:44 12° SW 05:19:21 10° SSW visible
02 Nov - 15:44:29 10° SW 15:49:14 77° NW 15:53:54 10° NE daylight
